Regional Weather Roundup
Issued by NWS Sioux Falls, SD

Home | Current Version | Previous Version | Text Only | Print | Product List | Glossary Off
Versions: 1 2 3 4 5 6 7 8 9 10 11 12 13 14 15 16 17 18 19 20 21 22 23 24 25 26 27 28 29 30 31 32 33 34 35 36 37 38 39 40 41 42 43 44 45 46 47 48 49 50

000
ASUS43 KFSD 210302
RWRFSD

WEATHER ROUNDUP FOR SE SOUTH DAKOTA/SW MINNESOTA/NW IOWA
NATIONAL WEATHER SERVICE SIOUX FALLS SD
1000 PM CDT FRI OCT 20 2017

NOTE: "FAIR" INDICATES FEW OR NO CLOUDS BELOW 12,000 FEET WITH NO
SIGNIFICANT WEATHER AND OR OBSTRUCTIONS TO VISIBILITY.


SDZ038>040-050-052>070-210400-
SOUTHEAST SOUTH DAKOTA

CITY           SKY/WX    TMP DP  RH WIND       PRES   REMARKS
BROOKINGS      CLOUDY    69  58  67 S20G33    29.55S
CHAMBERLAIN    CLEAR     68  57  68 S12       29.42S
HURON          MOCLDY    70  57  63 S20G26    29.44F
MADISON        FAIR      66  59  77 S23G35    29.55S
MITCHELL       CLOUDY    71  58  63 S21       29.48F
SIOUX FALLS    MOCLDY    70  59  68 S22G32    29.58S
WINNER         FAIR      69  54  58 S23G31    29.40F
YANKTON        CLOUDY    70  58  65 S18       29.56S
$$

MNZ071-072-080-081-089-090-097-098-210400-
SOUTHWEST MINNESOTA

CITY           SKY/WX    TMP DP  RH WIND       PRES   REMARKS
FAIRMONT       CLOUDY    64  53  67 S24       29.70F
JACKSON        CLEAR     63  54  72 S20G26    29.70R
MARSHALL       PTCLDY    69  57  65 S24G33    29.58S
MONTEVIDEO     PTCLDY    68  55  64 S15G22    29.57S
PIPESTONE      CLOUDY    66  55  68 S20G30    29.60S
REDWOOD FALLS  CLOUDY    68  53  58 S22G29    29.63S
TRACY          MOCLDY    68  58  70 S17G25    29.62S
WORTHINGTON    CLEAR     64  56  75 S16G24    29.66R
$$

IAZ001>003-012>014-020>022-031-032-NEZ013-014-SDZ071-210400-
NORTHWEST IOWA

CITY           SKY/WX    TMP DP  RH WIND       PRES   REMARKS
CHEROKEE       CLOUDY    66  57  71 S21G26    29.69R
DENISON        CLEAR     64  57  77 S26G37    29.73S
ESTHERVILLE    PTCLDY    64  55  72 S21G32    29.70S
LE MARS        CLOUDY    70  59  68 S22G31    29.63R
ORANGE CITY    CLOUDY    70  61  73 S20G26    29.64S
SHELDON        CLOUDY    68  57  68 S16G29    29.64R
SIOUX CITY     CLOUDY    70  58  65 S20G32    29.64R
SPENCER        PTCLDY    67  56  67 S24G33    29.69R
STORM LAKE     CLOUDY    64  55  72 S18G29    29.71S
$$

ABBREVIATIONS USED IN REMARKS
   TC - TEMPERATURE IN CELSIUS
  WCI - WIND CHILL INDEX
   HX - HEAT INDEX
  VSB - VISIBILITY





USA.gov is the U.S. government's official web portal to all federal, state and local government web resources and services.